Back to catalog

FENGYUN 1C DEB

AliveSSO
NORAD 32094·DEBRIS·🇨🇳 China

Launched May 10, 1999 from Taiyuan Satellite Launch Center

Loading…

Next Passes (next 24 hours)

TLE

FreshSource: Space-Track

Epoch: Sep 14, 2026, 10:07 UTC

1 32094U 99025CQL 26257.42195359  .00000320  00000-0  20087-3 0  9998
2 32094  98.7659 245.8655 0034003 205.1344 154.8174 14.11053057982521

Track FENGYUN 1C DEB in real time with AllMySat

Download on the App Store